Weather History for Kristianstad, Sweden

Change the Weather History Date:

Sunday, December 30, 2012

  Actual Average Record
Temperature  
Mean Temperature 42 °F -  
Max Temperature 46 °F - - ()
Min Temperature 37 °F - - ()
Degree Days  
Heating Degree Days 24    
Moisture  
Dew Point 40 °F    
Average Humidity 91    
Maximum Humidity 100    
Minimum Humidity 81    
Precipitation  
Precipitation 0.00 in - - ()
Sea Level Pressure  
Sea Level Pressure 29.65 in    
Wind  
Wind Speed 10 mph ()    
Max Wind Speed 18 mph    
Max Gust Speed 25 mph    
Visibility 5.8 miles    
Events Rain    
T = Trace of Precipitation, MM = Missing Value Source: Averaged Metar Reports

Daily Weather History Graph

Daily Weather History Graph

Search for Another Location

Airport:

Trip Planner

Search our weather history database for the weather conditions in past years. The results will help you decide how hot, cold, wet, or windy it might be!

Date:

Astronomy

Dec. 30, 2012 Rise Set
Actual Time 8:34 AM CET 3:38 PM CET
Civil Twilight 7:47 AM CET 4:25 PM CET
Nautical Twilight 6:58 AM CET 5:13 PM CET
Astronomical Twilight 6:13 AM CET 5:59 PM CET
Moon 6:21 PM CET (12/30) 9:08 AM CET (12/30)
Length of Visible Light 8h 37m
Length of Day
7h 03m
Waning Gibbous, 96% of the Moon is Illuminated
Dec 30
Waning Gibbous
Jan 5
Last Quarter
Jan 11
New
Jan 19
First Quarter
Jan 27
Full

Hourly Weather History & Observations

Time (CET) Temp. Windchill Dew Point Humidity Pressure Visibility Wind Dir Wind Speed Gust Speed Precip Events Conditions
12:20 AM 41.0 °F 33.9 °F 41.0 °F 100% 29.74 in 6.2 mi South 12.7 mph - N/A   Unknown
12:50 AM 42.8 °F 36.6 °F 41.0 °F 93% 29.71 in 6.2 mi SSW 11.5 mph - N/A   Unknown
1:20 AM 42.8 °F 38.0 °F 41.0 °F 93% 29.71 in 6.2 mi South 8.1 mph - N/A   Partly Cloudy
1:50 AM 42.8 °F 36.6 °F 41.0 °F 93% 29.71 in 6.2 mi South 11.5 mph - N/A   Scattered Clouds
2:20 AM 42.8 °F 38.0 °F 41.0 °F 93% 29.68 in 6.2 mi SSW 8.1 mph - N/A   Partly Cloudy
2:50 AM 42.8 °F 36.6 °F 41.0 °F 93% 29.68 in 6.2 mi South 11.5 mph - N/A   Unknown
3:20 AM 41.0 °F 35.8 °F 39.2 °F 93% 29.68 in 6.2 mi South 8.1 mph - N/A   Unknown
3:50 AM 41.0 °F 36.4 °F 39.2 °F 93% 29.68 in 6.2 mi South 6.9 mph - N/A   Unknown
4:20 AM 41.0 °F 36.4 °F 39.2 °F 93% 29.68 in 6.2 mi South 6.9 mph - N/A   Partly Cloudy
4:50 AM 41.0 °F 38.0 °F 39.2 °F 93% 29.65 in 6.2 mi South 4.6 mph - N/A   Mostly Cloudy
5:20 AM 42.8 °F 39.3 °F 41.0 °F 93% 29.65 in 6.2 mi South 5.8 mph - N/A   Overcast
5:50 AM 42.8 °F 38.0 °F 41.0 °F 93% 29.65 in 3.7 mi SSW 8.1 mph - N/A   Mostly Cloudy
6:20 AM 42.8 °F 38.0 °F 41.0 °F 93% 29.65 in 6.2 mi SSW 8.1 mph - N/A   Mostly Cloudy
6:50 AM 42.8 °F 37.0 °F 41.0 °F 93% 29.62 in 6.2 mi SSW 10.4 mph - N/A   Overcast
7:20 AM 44.6 °F 39.7 °F 41.0 °F 87% 29.62 in 6.2 mi SSW 9.2 mph - N/A   Overcast
7:50 AM 42.8 °F 38.0 °F 42.8 °F 100% 29.65 in 2.5 mi SSW 8.1 mph - N/A   Drizzle
8:20 AM 42.8 °F 39.3 °F 42.8 °F 100% 29.65 in 3.1 mi SSW 5.8 mph - N/A Rain Light Rain
8:50 AM 44.6 °F 40.2 °F 42.8 °F 93% 29.65 in 4.3 mi South 8.1 mph - N/A   Drizzle
9:20 AM 44.6 °F 40.2 °F 42.8 °F 93% 29.65 in 6.2 mi SSW 8.1 mph - N/A   Overcast
9:50 AM 44.6 °F 40.2 °F 42.8 °F 93% 29.65 in 3.1 mi SSW 8.1 mph - N/A   Drizzle
10:20 AM 44.6 °F 41.4 °F 42.8 °F 93% 29.65 in 6.2 mi South 5.8 mph - N/A   Light Drizzle
10:50 AM 44.6 °F 40.7 °F 42.8 °F 93% 29.65 in 6.2 mi SSW 6.9 mph - N/A   Mostly Cloudy
11:20 AM 44.6 °F 40.2 °F 42.8 °F 93% 29.65 in 6.2 mi SW 8.1 mph - N/A   Mostly Cloudy
11:50 AM 44.6 °F 40.2 °F 42.8 °F 93% 29.65 in 6.2 mi SW 8.1 mph - N/A   Mostly Cloudy
12:20 PM 44.6 °F 38.8 °F 42.8 °F 93% 29.65 in 6.2 mi SSW 11.5 mph - N/A   Scattered Clouds
12:50 PM 46.4 °F 41.1 °F 42.8 °F 87% 29.62 in 6.2 mi SSW 11.5 mph - N/A   Unknown
1:20 PM 44.6 °F 38.1 °F 42.8 °F 93% 29.62 in 6.2 mi SSW 13.8 mph - N/A   Mostly Cloudy
1:50 PM 44.6 °F 38.4 °F 42.8 °F 93% 29.62 in 6.2 mi SSW 12.7 mph - N/A   Mostly Cloudy
2:20 PM 44.6 °F 36.9 °F 41.0 °F 87% 29.62 in 6.2 mi SW 18.4 mph - N/A   Mostly Cloudy
2:50 PM 42.8 °F 34.5 °F 39.2 °F 87% 29.62 in 6.2 mi SW 18.4 mph - N/A   Drizzle
3:20 PM 41.0 °F 33.1 °F 39.2 °F 93% 29.62 in 3.7 mi SW 15.0 mph - N/A   Drizzle
3:50 PM 41.0 °F 33.5 °F 39.2 °F 93% 29.62 in 6.2 mi SW 13.8 mph - N/A   Mostly Cloudy
4:20 PM 41.0 °F 33.5 °F 37.4 °F 87% 29.62 in 6.2 mi SW 13.8 mph 25.3 mph N/A   Partly Cloudy
4:50 PM 41.0 °F 32.8 °F 37.4 °F 87% 29.62 in 6.2 mi SW 16.1 mph - N/A   Partly Cloudy
5:20 PM 41.0 °F 33.5 °F 37.4 °F 87% 29.62 in 6.2 mi SW 13.8 mph - N/A   Unknown
5:50 PM 41.0 °F 33.1 °F 37.4 °F 87% 29.62 in 6.2 mi SW 15.0 mph - N/A   Partly Cloudy
6:20 PM 41.0 °F 33.9 °F 37.4 °F 87% 29.62 in 6.2 mi WSW 12.7 mph 24.2 mph N/A   Mostly Cloudy
6:50 PM 41.0 °F 32.5 °F 35.6 °F 81% 29.62 in 6.2 mi SW 17.3 mph - N/A   Scattered Clouds
7:20 PM 39.2 °F 30.2 °F 35.6 °F 87% 29.62 in 6.2 mi SW 17.3 mph - N/A   Partly Cloudy
7:50 PM 39.2 °F 29.8 °F 35.6 °F 87% 29.62 in 6.2 mi SW 18.4 mph - N/A   Partly Cloudy
8:20 PM 39.2 °F 30.2 °F 35.6 °F 87% 29.62 in 6.2 mi SW 17.3 mph - N/A   Mostly Cloudy
8:50 PM 39.2 °F 30.5 °F 35.6 °F 87% 29.62 in 6.2 mi SW 16.1 mph - N/A   Mostly Cloudy
9:20 PM 39.2 °F 30.2 °F 35.6 °F 87% 29.65 in 6.2 mi SW 17.3 mph - N/A   Mostly Cloudy
9:50 PM 39.2 °F 30.2 °F 35.6 °F 87% 29.65 in 6.2 mi SW 17.3 mph - N/A   Mostly Cloudy
10:20 PM 39.2 °F 31.2 °F 35.6 °F 87% 29.65 in 6.2 mi SW 13.8 mph - N/A   Scattered Clouds
10:50 PM 39.2 °F 30.5 °F 35.6 °F 87% 29.65 in 6.2 mi SW 16.1 mph - N/A   Partly Cloudy
11:20 PM 37.4 °F 28.9 °F 35.6 °F 93% 29.65 in 6.2 mi SW 13.8 mph - N/A   Unknown
11:50 PM 39.2 °F 32.0 °F 35.6 °F 87% 29.68 in 6.2 mi SW 11.5 mph - N/A   Partly Cloudy